weather.gov     
National Weather Service

Regional Weather Roundup
NWS Homepage
This page is being discontinued on March 12, 2014.
The same data is available at this site. Please update your bookmarks.
Thank you, and we apologize for the inconvenience.
Please send an email to SR-SRH.Webmaster@noaa.gov with any concerns.


Current Version
Previous Version:    01  02  03  04  05  06  07  08  09  10  11  12  13  14  15  16  17  18  19  20  21  22  23  24  25  26  27  28  29  30  
   31  32  33  34  35  36  37  38  39  40  41  42  43  44  45  46  47  48  49  50  51  52  
[Printable]
573
ASUS43 KIWX 021710
RWRIWX

KIWX WEATHER ROUNDUP
NATIONAL WEATHER SERVICE NORTHERN INDIANA
100 PM EDT TUE SEP 02 2014

NOTE: "FAIR" INDICATES FEW OR NO CLOUDS BELOW 12,000 FEET WITH NO
SIGNIFICANT WEATHER AND/OR OBSTRUCTIONS TO VISIBILITY.

* THESE STATIONS ARE NOT UNDER NWS QUALITY CONTROL. THEY ALSO MAY NOT
  REPORT WEATHER SUCH AS PRECIPITATION OR FOG.

INZ001>027-021800-
NORTHERN INDIANA

CITY           SKY/WX    TMP DP  RH WIND       PRES   REMARKS
VALPARAISO     PTSUNNY   75  67  76 SW8       29.92F
MICHIGAN CITY* PTSUNNY   73  68  83 W3        29.91F
LAPORTE*       PTSUNNY   73  68  83 SW6       29.92F
KNOX*          PTSUNNY   73  67  82 W6        29.91F
SOUTH BEND     PTSUNNY   75  67  76 SW6       29.91F
ELKHART*       CLOUDY    73  68  83 SW5       29.92F
GOSHEN         LGT RAIN  72  68  87 SW7       29.91F FOG
MONTICELLO*    CLOUDY    73  67  82 W8        29.93F
LOGANSPORT*    CLOUDY    73  66  78 W9        29.94F
ROCHESTER*     CLOUDY    77  70  78 W7        29.93F
WARSAW*        CLOUDY    73  68  83 W8        29.92F
ANGOLA*        CLOUDY    72  64  78 W9        29.93R
FORT WAYNE     CLOUDY    70  67  90 W9        29.94F
HUNTINGTON*    CLOUDY    70  67  90 W7        29.94F
PERU/GRISSOM   CLOUDY    72  72  98 W10       29.94F
MARION*        CLOUDY    71  67  87 W6        29.96F

$$
INZ028>050-021800-
CENTRAL INDIANA

CITY           SKY/WX    TMP DP  RH WIND       PRES   REMARKS
LAFAYETTE      CLOUDY    73  68  84 VRB6      29.94F
KOKOMO*        CLOUDY    72  66  83 W10       29.94F
MUNCIE*        CLOUDY    72  65  78 W8        29.96F
INDIANAPOLIS   CLOUDY    73  66  78 W12       29.95F

$$
MIZ043>046-050>051-056>058-064>065-071>073-077>080-021800-
SOUTHWEST LOWER MICHIGAN

CITY           SKY/WX    TMP DP  RH WIND       PRES   REMARKS
BATTLE CREEK   CLOUDY    73  62  68 W8        29.91S
BENTON HARBOR  PTSUNNY   75  63  66 W7        29.90F
COLDWATER*     RAIN      72  68  87 W12       29.92R
HILLSDALE*     CLOUDY    74  69  85 W9        29.91S
HOLLAND        MOSUNNY   77  60  55 W6        29.90F
GRAND RAPIDS   PTSUNNY   76  62  62 W10       29.90S
KALAMAZOO      CLOUDY    74  62  66 W7        29.91S
STURGIS*       DRIZZLE   70  68  94 SW6       29.91F
THREE RIVERS*  PTSUNNY   73  65  76 W5        29.91F

$$
OHZ001>008-015>018-024>025-021800-
NORTHWEST OHIO

CITY           SKY/WX    TMP DP  RH WIND       PRES   REMARKS
WAUSEON*       CLOUDY    68  68 100 SW10      29.91F
DEFIANCE       CLOUDY    70  66  87 VRB5      29.92S
FINDLAY        CLOUDY    75  65  70 SW15      29.90F
TOLEDO EXPRESS LGT RAIN  68  66  94 SW12      29.90F FOG
TOLEDO METCALF CLOUDY    74  65  73 SW14      29.90S
LIMA           CLOUDY    73  65  75 SW9       29.94F

$$
&&




U.S. Dept. of Commerce
NOAA National Weather Service
1325 East West Highway
Silver Spring, MD 20910
E-mail: w-nws.webmaster@noaa.gov
Page last modified: May 16, 2007
NATIONAL WEATHER SERVICE: for Safety, for Work, for Fun - FOR LIFE